Home > Weather > Baghlan > Past weeks

Flag for Afghanistan Weather for the Past 2 Weeks in Baghlan, Afghanistan

Now
86 °F

Passing clouds.


Feels Like: 83 °F
Forecast: 58 / 91 °F
Wind: 7 mph from East

Location: Termez Airport

Current Time: May 4, 2016 at 6:22:25 PM

Latest Report: May 4, 2016 at 5:30 PM


Visibility: N/A

Pressure: 29.80 "Hg (28.05 "Hg at 536m altitude)

Humidity: 25%

Dew Point: 46 °F

Location of BaghlanLocation

Historic Weather in Baghlan — Graph

°F

Baghlan Temperature Yesterday

Maximum temperature yesterday: 79 °F (at 1:00 PM)
Minimum temperature yesterday: 63 °F (at 3:30 AM)
Average temperature yesterday: 72 °F

High & Low Weather Summary for the Past Weeks

 TemperatureHumidityPressure
High100 °F (Apr 30, 3:00 PM)100% (Apr 22, 5:30 AM)30.21 "Hg (Apr 22, 5:30 AM)
Low52 °F (Apr 22, 5:00 AM)9% (Apr 29, 3:00 PM)29.71 "Hg (Apr 30, 5:30 PM)
Average74 °F43%29.94 "Hg
* Reported Apr 19 4:30 PM — May 4 4:30 PM, Baghlan, Weather by CustomWeather, © 2016

Note: Actual official high and low records may vary slightly from our data, if they occured in-between our weather recording intervals... More about our weather records

Advertising

Baghlan Weather History for the Previous 24 Hours

Scroll right to see more
 ConditionsComfort  
Time TempWeatherWind HumidityBarometerVisibility
4:30 PM
Wed, May 4
88 °FPassing clouds.5 mph18%29.83 "HgN/A
3:30 PM88 °FPassing clouds.7 mph22%29.83 "HgN/A
3:00 PM86 °FPassing clouds.6 mph22%29.83 "HgN/A
2:30 PM88 °FSunny.3 mph21%29.86 "Hg10 mi
1:30 PM86 °FPassing clouds.7 mph27%29.89 "HgN/A
1:00 PM84 °FPassing clouds.7 mph29%29.89 "HgN/A
12:00 PM84 °FSunny.5 mph29%29.92 "Hg10 mi
11:30 AM84 °FSunny.5 mph27%29.92 "Hg10 mi
10:30 AM81 °FSunny.2 mph37%29.95 "Hg10 mi
10:00 AM79 °FSunny.2 mph45%29.95 "Hg10 mi
9:30 AM75 °FSunny.3 mph50%29.95 "Hg10 mi
9:00 AM73 °FPassing clouds.5 mph53%29.95 "HgN/A
8:30 AM73 °FPassing clouds.5 mph57%29.95 "HgN/A
8:00 AM70 °FSunny.2 mph64%29.95 "Hg10 mi
7:30 AM70 °FSunny.2 mph64%29.95 "Hg10 mi
7:00 AM68 °FSunny.2 mph64%29.95 "Hg10 mi
6:30 AM66 °FSunny.2 mph64%29.95 "Hg10 mi
6:00 AM61 °FSunny.1 mph77%29.95 "Hg10 mi
5:30 AM59 °FSunny.3 mph77%29.95 "Hg10 mi
5:00 AM59 °FClear.3 mph77%29.92 "Hg10 mi
4:30 AM59 °FClear.6 mph77%29.92 "Hg10 mi
4:00 AM59 °FClear.6 mph77%29.92 "Hg10 mi
3:00 AM61 °FClear.3 mph72%29.89 "Hg10 mi
2:30 AM63 °FClear.3 mph73%29.89 "Hg10 mi
1:30 AM64 °FPassing clouds.No wind64%29.89 "HgN/A
12:30 AM68 °FPassing clouds.6 mph56%29.89 "HgN/A
11:30 PM
Tue, May 3
68 °FPassing clouds.5 mph60%29.92 "HgN/A
11:00 PM70 °FPassing clouds.6 mph53%29.92 "HgN/A
10:30 PM72 °FPassing clouds.6 mph50%29.92 "HgN/A
10:00 PM73 °FPassing clouds.7 mph47%29.92 "HgN/A
9:30 PM73 °FPassing clouds.6 mph50%29.92 "HgN/A
9:00 PM73 °FPassing clouds.5 mph53%29.92 "HgN/A
8:30 PM73 °FPassing clouds.3 mph57%29.92 "HgN/A
8:00 PM73 °FPassing clouds.3 mph57%29.92 "HgN/A
7:30 PM75 °FPassing clouds.2 mph50%29.89 "HgN/A
7:00 PM77 °FPassing clouds.1 mph44%29.89 "HgN/A
6:30 PM77 °FPassing clouds.1 mph44%29.89 "HgN/A
6:00 PM77 °FPassing clouds.3 mph44%29.89 "HgN/A
Weather by CustomWeather, © 2016

See weather overviewHow to use our weather pages